Wind_Speed
4 4 5 4 4 4 5 5 5 5 6 5 4 4 4 4 4 4 4 4 4 4 4 4 5 4 4 4 4 5 4 4 5 4 4 4 4 4 4 4 4 4 5 5 5 5 6 5 5
5 5 5 5 5 5 6 6 6 6 6 6 5 5 5 4 4 4 5 5 5 5 5 5 5 5 5 6 5 5 6 6 5 5 5 5 5 5 6 5 5 5 6 6 6 6 7 7 7
5 5 5 5 6 7 7 6 5 6 6 6 6 5 6 5 5 5 5 5 5 5 5 6 6 6 6 6 6 6 6 6 6 5 6 6 5 5 6 6 6 6 6 6 7 7 8 8 8
5 5 6 6 7 7 8 7 6 6 7 7 6 6 5 6 5 5 5 5 6 6 6 6 6 6 6 6 6 6 6 6 6 6 6 6 6 6 6 6 6 6 6 6 6 7 7 8 8
6 6 7 7 7 7 7 7 7 6 6 7 7 6 6 6 6 6 6 6 6 6 7 6 6 6 6 6 6 7 7 6 6 6 6 6 6 7 7 7 7 7 7 7 7 8 8 8 9
6 6 6 7 8 8 8 7 7 7 7 6 6 6 7 6 6 7 6 6 6 7 7 7 7 7 6 6 6 6 6 6 7 7 7 7 7 7 7 8 8 8 8 8 8 8 8 9 9
6 6 6 7 7 8 8 7 7 7 6 6 6 6 6 6 6 6 6 6 6 6 7 6 6 7 7 7 7 7 6 6 6 7 7 7 7 7 8 8 8 9 9 9 9 9 9 9 9
6 6 6 6 7 7 7 7 7 7 7 7 6 6 6 6 6 6 6 6 6 6 6 6 6 7 7 7 7 7 7 7 7 7 6 6 7 7 7 8 8 8 9 9 10 10 10 10 10
5 5 5 6 7 7 7 7 7 7 7 7 7 6 5 5 6 6 6 6 6 6 6 6 6 6 7 7 7 7 8 7 7 6 6 7 7 7 7 8 8 8 9 10 10 11 10 10 10
5 4 5 6 6 7 8 7 6 7 6 6 6 6 6 5 5 5 5 5 6 6 6 6 6 6 7 7 7 8 8 7 8 8 7 7 7 7 8 8 8 9 10 10 10 10 11 10 10
4 4 4 5 5 5 6 6 6 6 6 6 6 6 6 6 5 5 5 5 5 6 6 6 6 6 7 7 7 7 7 8 8 8 8 8 8 8 8 9 10 10 10 11 11 11 11 11 11
5 4 4 4 4 4 5 5 5 6 7 6 6 7 7 6 6 5 5 5 6 6 6 6 7 7 7 7 7 6 7 7 8 8 8 8 9 9 9 9 10 10 10 11 11 12 12 12 13
5 5 5 5 4 4 5 5 6 6 7 7 7 7 7 7 7 7 6 6 6 6 6 6 7 7 8 7 7 7 7 7 7 8 8 9 9 10 9 9 9 10 11 11 11 12 12 13 13
4 5 5 5 5 5 5 6 6 7 7 8 8 8 8 8 8 7 7 7 7 7 7 7 8 8 8 7 7 7 7 8 8 8 9 9 9 10 10 10 10 11 11 12 12 12 12 13 14
4 5 5 5 5 6 6 6 7 7 7 8 8 8 8 8 8 8 8 7 7 7 8 8 8 8 8 8 8 8 8 8 9 9 10 10 10 10 11 11 12 12 12 12 13 13 13 14 14
5 5 5 6 6 6 6 6 7 7 7 8 8 8 8 8 8 9 8 8 8 8 9 8 8 8 8 8 8 8 8 9 9 10 10 11 11 12 12 13 13 13 13 13 13 14 14 14 14
6 6 6 7 7 7 7 7 7 8 8 8 8 8 8 8 8 9 9 9 9 9 9 9 8 9 9 9 9 9 9 9 10 10 11 12 12 12 13 13 14 14 14 14 14 14 14 14 14
7 7 7 8 8 8 7 7 7 8 8 8 8 9 9 9 10 10 10 10 10 10 10 10 10 10 9 9 10 9 9 10 11 11 12 12 13 13 13 14 15 15 15 15 15 15 15 15 14
8 9 9 9 9 9 9 8 8 9 9 9 9 9 9 10 10 11 10 10 11 11 11 11 11 11 11 11 11 11 11 12 12 12 13 13 13 14 14 14 14 14 15 15 16 15 15 15 14
10 10 10 10 10 9 10 9 9 9 9 10 10 10 11 11 11 11 11 11 11 12 12 12 11 12 12 12 12 12 13 13 13 14 14 14 14 15 15 15 15 15 15 16 15 15 15 15 14
10 10 11 11 10 10 10 10 11 10 10 10 11 11 11 12 12 12 13 13 13 13 13 13 13 13 13 13 13 13 13 13 14 14 14 15 15 15 15 15 16 16 15 15 15 14 14 14 14
11 12 12 12 11 11 11 11 12 11 11 11 11 11 12 12 13 13 13 13 14 14 14 14 14 14 14 14 14 14 14 14 15 15 15 15 16 16 16 16 17 16 15 15 14 14 14 14 14
12 12 12 12 12 12 13 12 12 13 12 12 12 12 12 12 13 13 13 14 15 15 15 15 15 15 15 15 15 15 15 15 15 16 16 16 16 16 16 16 16 16 15 15 15 14 14 14 14
13 13 13 13 14 13 13 13 13 13 13 13 13 13 13 13 13 13 14 14 15 15 15 15 16 16 16 16 16 15 15 16 16 16 17 17 17 17 17 17 16 16 15 15 15 15 15 14 14
14 13 14 14 15 15 14 14 14 14 14 14 14 14 14 14 14 15 15 15 15 15 15 16 17 17 17 17 17 16 16 17 17 18 18 18 18 18 18 17 17 17 17 16 16 15 16 16 15
14 14 14 15 15 15 14 14 14 15 15 15 15 15 15 15 15 15 15 15 15 15 16 17 17 18 18 18 18 18 18 19 19 19 19 19 19 19 18 18 18 18 18 17 17 17 17 17 17
15 14 14 15 16 15 15 14 14 14 14 14 15 15 15 15 15 15 16 16 17 17 17 18 18 19 19 19 19 19 19 19 19 19 19 19 19 19 19 18 18 18 18 17 18 18 18 18 18
15 15 15 15 15 15 15 14 14 14 15 15 15 15 15 16 16 16 17 17 18 18 18 18 18 19 20 20 20 20 20 20 20 20 20 20 20 20 19 19 19 19 18 18 18 19 19 19 19
15 15 16 16 16 16 16 15 14 15 15 16 16 16 16 16 17 17 17 17 18 19 19 19 19 20 20 20 20 21 21 21 22 21 21 21 21 20 20 20 20 19 19 19 19 20 20 20 19
16 16 16 16 16 16 16 15 15 15 15 16 16 17 17 17 17 18 18 18 18 19 19 19 20 20 21 21 21 22 22 23 23 22 23 22 22 21 21 21 21 20 20 20 20 20 21 21 21
Wind_Direction
267 256 244 248 253 248 253 262 261 261 257 250 254 256 258 259 246 249 253 248 245 248 249 247 250 260 265 267 267 264 266 268 273 274 267 270 264 255 242 245 247 243 246 247 244 245 247 250 256
266 259 250 250 252 255 260 262 261 259 252 245 249 251 250 247 245 246 245 245 244 246 248 250 256 263 268 270 268 266 265 263 267 273 270 271 268 254 252 247 251 252 251 250 249 250 253 253 254
266 259 258 252 252 253 255 258 256 253 250 249 251 246 242 241 245 247 251 252 250 251 254 255 258 263 269 269 268 268 265 261 261 266 267 267 265 259 254 248 252 250 250 250 253 254 255 254 253
263 262 261 257 256 254 253 254 253 254 255 252 251 245 243 244 249 251 257 258 257 254 252 254 256 259 265 268 268 263 262 263 261 262 262 260 257 257 258 256 254 251 252 253 252 254 256 253 252
262 266 262 256 253 251 249 248 245 248 251 249 248 249 248 246 252 255 258 263 261 258 254 252 253 255 258 267 269 266 265 264 262 259 258 257 262 263 260 257 255 255 254 254 256 258 257 257 257
262 264 260 255 248 247 250 250 246 246 252 251 248 248 248 250 252 257 261 263 262 260 258 253 250 251 257 262 263 267 265 262 260 259 258 258 259 262 259 258 260 261 260 259 260 261 259 260 258
255 255 253 253 247 245 245 247 247 248 250 251 250 249 250 252 253 258 263 265 262 260 257 252 251 253 256 258 261 264 264 264 263 259 261 263 261 260 261 264 266 264 261 262 264 266 265 263 261
251 252 250 248 245 243 242 242 241 245 246 247 251 254 253 253 254 262 265 266 263 260 258 256 254 255 256 259 260 262 261 260 261 262 265 268 264 262 262 265 269 269 267 266 267 268 268 266 263
258 257 254 247 243 242 242 241 237 240 242 243 249 252 255 257 256 260 262 263 263 258 256 255 256 259 262 263 262 264 263 261 261 265 271 270 267 264 265 267 270 270 270 270 270 270 268 266 264
258 258 254 248 243 243 241 238 235 239 239 241 247 249 252 261 259 255 259 263 261 257 256 257 258 261 263 265 268 268 265 265 267 268 273 273 268 265 265 268 270 271 272 273 274 272 270 269 267
259 259 258 253 248 244 240 237 238 237 237 239 245 251 253 252 250 251 257 264 265 261 260 258 262 265 268 273 273 268 267 265 265 266 268 272 270 269 268 270 272 273 273 274 274 272 271 270 270
254 258 256 260 255 249 242 239 239 234 235 240 246 249 252 250 251 252 257 264 266 265 265 262 266 268 273 276 275 272 270 269 269 269 271 272 274 273 271 274 278 278 276 276 276 273 271 270 269
253 257 254 256 257 247 248 244 241 238 240 243 246 250 253 255 252 250 255 262 268 267 267 265 266 271 275 273 273 273 272 275 274 274 275 277 276 275 276 280 281 280 279 279 279 278 273 271 268
263 262 260 259 258 259 251 245 245 244 246 247 248 249 253 252 249 251 255 262 267 265 267 267 268 272 272 270 271 273 274 275 274 274 276 279 278 278 280 283 283 281 280 279 280 279 278 274 272
266 267 265 263 264 266 258 253 251 251 250 252 252 251 252 250 248 251 255 260 264 266 270 270 270 270 271 271 272 275 276 276 275 273 274 276 278 278 281 283 283 282 282 281 282 282 281 280 278
268 270 270 269 266 266 261 258 256 256 257 258 257 257 255 251 250 252 255 259 264 268 273 272 271 273 276 278 276 276 278 280 279 275 274 275 276 278 281 283 284 284 283 282 283 282 280 280 278
265 266 264 267 269 265 261 263 261 261 261 260 259 261 260 255 251 253 255 260 264 268 273 273 272 274 277 278 278 276 275 276 277 276 274 274 275 279 281 283 283 284 282 281 281 281 279 279 277
263 263 264 269 269 266 266 266 266 265 261 257 258 260 258 255 252 253 256 261 264 268 270 271 273 274 277 280 278 277 276 279 279 278 275 274 276 278 280 283 282 282 283 282 280 281 280 279 278
262 265 266 269 270 265 266 267 262 265 262 260 258 258 259 259 258 257 258 262 264 266 266 269 268 272 276 278 279 280 281 281 282 281 279 279 281 282 283 284 285 286 285 284 282 281 280 280 279
266 267 267 268 269 267 268 268 264 266 267 267 264 262 261 260 260 259 260 263 265 266 266 269 270 273 274 277 278 282 283 284 286 285 284 283 284 284 284 285 284 283 282 283 283 281 280 279 278
267 267 266 268 269 269 270 270 269 269 271 271 268 266 264 265 263 262 263 265 267 265 266 270 273 276 278 280 282 284 285 286 286 286 286 284 285 286 284 284 282 282 283 283 282 282 281 280 279
266 265 266 267 269 270 270 267 268 269 271 272 271 268 266 265 265 266 266 267 269 268 268 270 272 276 280 282 284 284 284 285 285 286 288 287 288 287 286 284 283 282 281 280 281 281 281 280 276
265 265 267 269 270 271 271 270 268 270 271 269 269 270 270 267 267 267 267 269 270 270 270 270 273 276 277 279 280 282 282 282 283 285 286 287 289 288 287 287 284 282 280 278 279 279 280 280 276
265 269 271 273 272 272 271 271 267 269 271 270 270 270 271 271 270 269 269 272 272 269 268 269 271 274 276 276 278 281 283 282 282 283 284 286 286 286 286 286 284 283 280 279 277 278 278 279 277
264 268 273 275 274 273 271 271 271 272 272 271 273 270 270 272 271 271 271 272 273 269 269 270 271 273 276 277 277 280 282 283 283 283 282 284 285 285 284 283 281 280 280 279 277 277 277 277 278
265 267 270 273 273 273 272 272 274 276 273 273 274 273 271 270 269 269 269 269 271 271 271 272 273 274 276 277 277 278 280 284 284 284 283 284 285 285 284 282 280 278 279 278 276 277 277 276 277
264 265 268 271 273 274 274 274 276 277 275 275 275 274 272 270 269 269 269 270 271 271 272 274 274 275 275 275 277 278 280 283 285 286 284 285 284 283 281 281 281 280 278 277 277 277 277 278 277
260 263 265 270 274 275 275 276 275 274 273 274 274 275 273 270 270 269 271 273 272 272 274 276 276 276 275 275 277 277 279 282 284 286 284 284 283 283 279 279 279 280 278 276 276 277 278 278 278
260 261 264 268 272 275 277 277 274 273 273 273 275 276 278 276 273 272 273 273 273 273 275 277 277 277 277 277 277 277 279 282 284 284 286 285 284 282 281 281 281 281 279 277 276 276 277 277 277
262 262 265 269 272 274 276 278 276 274 273 273 276 279 280 280 278 276 275 273 274 274 276 279 280 279 278 277 277 278 279 282 282 282 285 285 284 282 281 281 282 282 280 278 276 276 276 276 275
Height
5875 5876 5876 5877 5878 5878 5878 5878 5878 5877 5877 5877 5877 5877 5877 5878 5878 5880 5878 5876 5877 5877 5876 5876 5876 5876 5876 5875 5875 5875 5875 5875 5875 5874 5874 5874 5874 5873 5873 5874 5873 5873 5874 5874 5873 5873 5873 5873 5873
5875 5875 5876 5877 5877 5877 5877 5876 5876 5876 5876 5876 5876 5876 5876 5876 5876 5876 5875 5875 5876 5875 5875 5875 5875 5875 5875 5874 5874 5874 5874 5874 5874 5873 5873 5873 5873 5873 5872 5872 5872 5872 5872 5872 5872 5872 5872 5872 5872
5874 5874 5875 5876 5875 5876 5876 5875 5875 5874 5874 5874 5874 5875 5875 5875 5875 5875 5874 5875 5874 5874 5874 5874 5874 5874 5874 5873 5873 5873 5873 5873 5873 5872 5872 5872 5872 5871 5871 5871 5871 5871 5871 5871 5871 5871 5871 5871 5870
5873 5874 5874 5875 5874 5874 5874 5873 5873 5873 5873 5873 5873 5873 5873 5874 5874 5874 5873 5873 5873 5873 5873 5873 5873 5873 5872 5872 5872 5872 5872 5872 5871 5871 5871 5870 5870 5870 5870 5870 5870 5870 5870 5870 5869 5869 5869 5869 5869
5871 5872 5872 5872 5872 5872 5872 5872 5872 5872 5872 5872 5872 5872 5872 5872 5872 5872 5872 5872 5872 5872 5872 5872 5871 5871 5871 5871 5871 5870 5870 5870 5870 5870 5869 5869 5869 5869 5869 5869 5868 5868 5868 5868 5868 5868 5868 5868 5867
5870 5870 5871 5870 5870 5870 5870 5870 5870 5870 5870 5870 5870 5870 5870 5871 5871 5871 5870 5871 5870 5870 5870 5870 5870 5870 5869 5869 5869 5869 5869 5869 5868 5868 5868 5868 5868 5867 5867 5867 5867 5867 5867 5866 5866 5866 5866 5866 5866
5869 5869 5868 5868 5868 5868 5869 5868 5868 5868 5868 5869 5869 5869 5869 5869 5869 5869 5869 5869 5869 5869 5869 5869 5868 5868 5868 5868 5868 5868 5867 5867 5867 5867 5866 5866 5866 5866 5865 5865 5865 5865 5865 5864 5864 5864 5864 5864 5863
5866 5867 5866 5866 5867 5867 5867 5867 5867 5867 5867 5867 5867 5868 5868 5868 5868 5868 5868 5868 5867 5867 5867 5867 5867 5867 5866 5866 5866 5866 5866 5866 5865 5865 5865 5864 5864 5864 5864 5864 5863 5863 5862 5862 5862 5862 5862 5861 5861
5865 5866 5865 5865 5865 5865 5865 5865 5865 5865 5865 5865 5866 5866 5867 5866 5866 5866 5866 5866 5866 5866 5866 5866 5865 5865 5865 5865 5865 5864 5864 5864 5864 5864 5863 5863 5863 5862 5862 5861 5861 5861 5860 5860 5860 5860 5859 5859 5859
5863 5864 5863 5863 5863 5863 5863 5863 5864 5864 5864 5864 5864 5865 5865 5865 5865 5865 5865 5865 5865 5865 5864 5864 5864 5864 5864 5864 5863 5863 5863 5862 5862 5862 5862 5861 5861 5860 5860 5860 5859 5859 5858 5858 5858 5857 5857 5857 5856
5861 5862 5862 5861 5862 5862 5862 5862 5862 5862 5863 5863 5863 5863 5863 5863 5863 5864 5864 5863 5863 5863 5863 5863 5863 5863 5862 5862 5862 5861 5861 5861 5860 5860 5860 5859 5859 5858 5858 5858 5857 5857 5856 5856 5855 5855 5854 5854 5854
5860 5860 5860 5860 5860 5860 5860 5860 5861 5861 5862 5862 5862 5862 5862 5862 5862 5862 5862 5862 5862 5862 5862 5861 5861 5861 5861 5860 5860 5860 5859 5859 5859 5858 5858 5858 5857 5856 5856 5855 5855 5854 5854 5853 5852 5852 5852 5851 5851
5858 5859 5859 5859 5858 5859 5859 5859 5859 5859 5860 5860 5860 5860 5860 5860 5860 5860 5861 5861 5861 5860 5860 5860 5860 5859 5859 5859 5858 5858 5857 5857 5857 5856 5856 5855 5855 5854 5854 5853 5852 5852 5851 5850 5850 5849 5849 5848 5848
5857 5857 5857 5857 5857 5857 5857 5858 5858 5858 5858 5858 5859 5859 5858 5858 5858 5859 5859 5859 5859 5859 5859 5858 5858 5857 5857 5857 5856 5856 5856 5855 5855 5854 5854 5853 5853 5852 5851 5851 5850 5849 5849 5848 5847 5846 5846 5845 5844
5855 5856 5856 5856 5856 5856 5856 5857 5856 5856 5856 5857 5857 5856 5856 5856 5856 5857 5857 5857 5857 5857 5857 5856 5856 5855 5855 5855 5854 5854 5853 5853 5852 5852 5851 5851 5850 5849 5849 5848 5848 5847 5846 5845 5844 5844 5843 5842 5841
5854 5855 5855 5855 5854 5854 5856 5856 5855 5855 5855 5855 5855 5855 5854 5854 5855 5855 5855 5855 5855 5855 5855 5854 5854 5853 5853 5852 5852 5851 5851 5850 5850 5849 5849 5848 5847 5847 5846 5845 5845 5844 5843 5842 5841 5840 5839 5839 5838
5853 5853 5853 5853 5853 5853 5853 5854 5853 5853 5853 5853 5853 5853 5852 5852 5853 5853 5853 5853 5853 5853 5852 5852 5852 5851 5851 5850 5849 5849 5848 5848 5847 5846 5846 5845 5844 5844 5843 5842 5841 5840 5839 5839 5838 5837 5836 5835 5834
5852 5852 5851 5851 5851 5851 5851 5851 5851 5851 5851 5851 5850 5850 5850 5850 5850 5850 5850 5850 5850 5850 5850 5850 5849 5849 5848 5848 5847 5846 5846 5845 5844 5844 5843 5842 5841 5840 5840 5839 5838 5836 5836 5835 5834 5833 5832 5831 5830
5849 5849 5849 5850 5849 5849 5849 5849 5849 5848 5848 5848 5848 5848 5848 5848 5847 5847 5848 5848 5848 5847 5847 5847 5846 5846 5846 5845 5844 5844 5843 5842 5841 5840 5840 5839 5838 5837 5836 5835 5834 5832 5832 5830 5829 5828 5827 5827 5826
5846 5847 5847 5847 5847 5847 5847 5847 5846 5846 5845 5845 5845 5845 5845 5845 5844 5844 5845 5845 5845 5845 5844 5844 5844 5843 5843 5842 5841 5841 5840 5839 5838 5837 5836 5835 5834 5833 5832 5831 5830 5828 5827 5826 5825 5824 5823 5822 5821
5844 5844 5844 5844 5844 5844 5845 5845 5844 5844 5843 5843 5842 5842 5842 5842 5841 5842 5842 5842 5842 5842 5841 5841 5841 5840 5840 5839 5838 5837 5837 5836 5835 5834 5833 5832 5830 5829 5828 5827 5825 5824 5822 5821 5820 5819 5818 5817 5817
5841 5841 5841 5841 5842 5842 5842 5842 5841 5841 5840 5840 5839 5839 5839 5839 5838 5838 5838 5838 5838 5838 5838 5838 5837 5837 5836 5836 5835 5834 5833 5832 5831 5830 5829 5827 5826 5825 5823 5822 5820 5819 5818 5817 5816 5815 5814 5813 5812
5838 5838 5838 5838 5838 5839 5838 5838 5839 5837 5837 5837 5836 5836 5835 5835 5835 5835 5835 5835 5835 5834 5834 5834 5834 5834 5833 5832 5831 5830 5829 5828 5827 5826 5825 5823 5822 5820 5819 5817 5815 5814 5813 5812 5811 5810 5809 5808 5807
5834 5835 5835 5835 5835 5836 5835 5835 5835 5834 5833 5833 5833 5832 5832 5832 5832 5832 5831 5831 5831 5831 5831 5830 5830 5830 5829 5829 5828 5826 5825 5824 5823 5822 5820 5819 5817 5816 5814 5812 5811 5810 5809 5808 5807 5806 5805 5803 5803
5831 5832 5832 5832 5832 5832 5831 5830 5831 5830 5829 5829 5829 5829 5829 5828 5828 5828 5828 5827 5827 5827 5827 5826 5826 5826 5825 5824 5823 5822 5821 5820 5819 5817 5816 5814 5813 5811 5809 5808 5806 5805 5804 5803 5802 5801 5800 5799 5798
5827 5828 5829 5829 5828 5828 5827 5827 5827 5826 5825 5825 5824 5824 5824 5824 5824 5823 5823 5823 5823 5822 5822 5822 5821 5821 5820 5820 5819 5818 5817 5815 5814 5812 5811 5809 5808 5806 5804 5803 5801 5800 5799 5798 5797 5796 5795 5794 5793
5823 5823 5824 5824 5823 5823 5823 5823 5823 5822 5821 5821 5820 5820 5819 5819 5819 5819 5819 5818 5818 5818 5817 5817 5816 5816 5815 5814 5814 5813 5812 5811 5809 5808 5806 5804 5803 5801 5799 5798 5796 5795 5794 5793 5792 5791 5789 5788 5787
5819 5819 5819 5819 5819 5819 5819 5819 5819 5818 5817 5817 5816 5815 5815 5815 5815 5814 5814 5813 5813 5813 5812 5812 5811 5811 5810 5809 5808 5808 5807 5806 5804 5802 5801 5799 5797 5795 5794 5792 5791 5790 5788 5787 5786 5785 5784 5783 5782
5814 5815 5814 5815 5815 5815 5815 5817 5815 5814 5813 5813 5812 5811 5811 5810 5810 5810 5809 5809 5808 5807 5807 5806 5806 5805 5804 5804 5803 5802 5801 5800 5798 5797 5795 5793 5791 5790 5788 5787 5785 5784 5782 5781 5780 5779 5778 5777 5776
5809 5810 5810 5811 5811 5810 5810 5813 5810 5809 5809 5808 5807 5806 5806 5806 5805 5804 5804 5803 5803 5802 5802 5801 5800 5800 5799 5798 5797 5796 5795 5794 5792 5791 5789 5787 5785 5784 5782 5781 5779 5778 5776 5775 5774 5773 5772 5771 5770